Theta_e
354 362 363 363 363 364 365 365 364 362 362 361 361 361 362 360 360 361 362 362 363 361 357 357 357 355 357 355 355 356 357 357 356 354 353 352 351 350 350 350 350 346 350
358 361 362 363 363 363 364 364 364 363 363 363 363 362 361 360 360 360 361 362 362 358 354 355 355 354 354 354 354 354 354 357 357 355 354 354 353 352 351 351 349 349 349
358 359 359 362 362 362 363 363 362 362 363 362 362 361 360 360 360 361 362 362 361 357 354 355 356 355 354 354 353 353 353 355 356 354 354 350 349 353 351 350 350 350 350
358 360 358 362 362 362 361 361 361 361 361 360 360 360 359 359 360 361 361 362 360 357 354 356 356 355 355 354 354 354 353 353 353 351 348 347 346 354 350 349 350 350 350
358 358 360 362 361 361 361 360 360 360 359 360 360 359 359 360 361 361 361 361 360 358 354 356 357 357 357 357 357 357 356 356 355 355 355 353 349 348 351 350 350 350 350
356 356 361 361 361 360 360 360 360 359 359 360 360 360 360 361 360 360 361 360 359 357 354 355 357 357 357 356 356 357 356 355 354 349 350 350 354 354 351 351 350 350 349
355 355 358 361 360 360 361 360 359 359 358 358 359 360 360 360 360 361 360 359 358 355 354 353 354 356 356 356 355 355 354 352 350 348 346 348 351 351 354 353 352 351 351
354 356 358 360 360 360 360 359 359 358 357 357 358 358 359 359 359 360 359 358 357 355 353 353 353 354 354 354 353 353 353 351 348 346 344 345 350 350 353 356 355 354 353
356 356 356 356 359 360 358 358 358 357 357 356 356 357 357 358 358 358 358 358 357 355 353 353 353 352 352 352 352 351 351 349 348 346 342 343 345 345 353 358 357 356 356
355 354 354 355 352 353 356 358 357 357 357 356 356 356 357 357 357 358 355 356 355 354 352 352 353 353 352 352 352 351 350 349 345 344 342 341 345 345 347 357 359 358 358
352 353 353 351 352 352 352 355 357 358 357 357 356 356 353 349 353 355 355 356 355 353 351 352 352 353 352 352 352 352 350 344 344 341 339 345 344 346 348 352 358 359 358
350 351 351 352 352 352 351 355 354 353 353 353 353 354 351 354 354 353 356 355 354 354 353 353 352 352 350 343 343 344 340 341 339 339 337 345 344 346 348 352 355 358 359
351 351 352 355 356 353 351 354 353 352 352 354 355 356 354 352 353 351 351 351 353 353 350 349 349 348 346 346 342 341 340 340 337 336 337 343 345 346 349 352 354 355 355
350 352 354 356 357 357 356 355 355 353 353 351 353 357 354 351 352 351 349 349 352 350 350 350 346 347 347 346 345 344 342 342 339 340 341 344 345 346 348 353 355 356 357
347 351 353 355 355 355 356 355 355 354 353 353 353 354 352 350 351 351 350 349 348 348 348 347 347 347 346 345 345 346 346 346 345 342 344 348 346 347 349 353 357 359 360
347 349 352 354 356 356 356 357 355 356 355 355 353 353 354 351 352 350 350 349 349 348 347 346 346 345 345 346 345 349 349 349 348 346 345 348 349 348 348 351 357 361 361
345 352 353 354 355 356 356 357 356 356 355 353 353 356 354 354 353 352 350 349 348 349 348 349 348 348 347 346 346 347 348 351 350 348 350 350 354 351 351 353 355 358 358
343 349 354 354 354 356 355 356 355 355 353 353 353 355 354 354 353 353 350 349 350 349 346 346 347 346 345 346 347 350 349 349 350 350 353 355 354 353 348 347 351 354 355
345 344 350 353 352 354 355 354 355 355 353 354 354 355 355 351 351 352 348 349 350 347 345 346 347 346 344 346 348 349 350 347 348 348 348 351 352 349 347 346 344 348 346
344 345 347 350 351 352 351 352 352 351 352 353 353 353 354 353 351 352 349 350 349 348 348 349 347 349 346 346 343 343 342 344 345 344 345 345 348 344 342 340 335 335 340
343 343 346 348 349 348 347 345 346 345 347 349 350 352 351 352 352 353 351 352 353 350 349 351 349 346 345 343 340 340 339 340 340 342 343 339 340 339 337 336 335 335 333
341 344 343 347 347 348 347 347 348 346 346 349 349 350 349 347 346 348 349 348 348 344 346 346 346 342 342 345 336 334 325 329 336 338 334 332 328 333 332 333 334 334 337
339 340 342 343 346 347 347 343 342 344 344 345 346 346 347 346 346 345 344 343 343 342 340 342 342 339 334 337 335 330 323 321 320 326 324 325 325 326 330 334 334 334 336
337 338 338 340 343 344 344 343 343 341 340 340 341 343 342 342 342 344 345 345 346 342 340 342 341 337 335 332 338 336 331 324 317 317 325 325 325 326 330 331 333 335 336
333 333 336 338 340 341 343 344 341 339 340 338 337 337 337 339 336 336 339 340 343 343 343 340 341 338 337 336 331 329 330 327 324 322 318 322 326 329 330 330 332 334 337
332 333 335 336 336 338 338 338 337 337 336 335 333 332 331 327 328 328 329 330 332 332 330 331 335 340 340 339 338 335 328 327 325 325 322 322 323 328 331 331 332 330 332
Wind_Speed
13 17 16 14 12 15 18 18 20 20 19 19 19 18 18 18 18 17 16 14 11 12 12 12 12 13 14 15 14 13 13 13 14 13 11 10 9 8 7 7 9 7 7
17 17 16 15 14 14 16 18 19 19 18 19 19 18 17 18 18 16 15 14 12 12 12 12 12 13 13 14 13 12 13 12 11 11 9 8 6 6 7 7 5 8 8
19 18 17 15 14 14 16 17 17 17 17 18 18 17 17 17 17 15 14 12 11 12 12 12 12 13 13 13 12 11 11 11 10 9 8 4 5 7 7 8 8 7 7
20 18 18 17 15 15 17 17 17 17 16 16 17 17 15 15 15 13 12 11 12 12 11 11 11 12 13 13 12 11 10 9 9 9 6 5 5 10 8 8 9 9 9
18 17 17 17 17 17 18 18 18 17 17 16 16 16 15 14 13 12 11 10 11 11 11 11 11 10 11 12 10 9 8 8 7 8 5 5 4 8 9 9 10 10 10
18 18 18 17 16 16 18 18 17 17 17 16 15 15 15 14 12 11 10 9 9 9 9 9 9 9 9 10 8 8 7 6 6 4 4 5 7 6 10 10 10 9 10
18 17 18 18 18 17 18 19 19 18 17 16 15 14 14 12 11 10 9 8 8 8 7 7 7 6 6 7 7 6 6 5 7 4 4 4 7 7 11 11 11 11 11
20 18 17 18 18 17 18 19 20 20 18 18 16 15 14 12 11 10 9 8 7 6 5 5 5 4 5 5 5 5 5 6 6 5 5 4 1 8 12 12 11 11 12
19 18 16 16 16 17 16 15 16 18 19 18 17 15 13 12 10 9 7 7 6 5 3 2 2 3 4 4 5 5 5 6 8 5 6 5 4 6 13 12 13 13 13
17 18 18 16 16 15 15 16 14 14 16 17 18 17 16 13 11 9 8 6 5 4 3 2 3 3 4 5 6 6 7 8 10 7 6 6 6 10 9 12 14 14 14
14 16 17 18 17 16 15 14 16 16 13 12 13 14 14 10 12 12 7 7 6 4 3 3 4 4 5 7 7 7 8 5 7 6 6 4 10 11 12 12 14 15 15
19 19 16 16 16 16 13 15 14 13 11 11 11 13 9 9 8 7 6 6 4 5 5 5 6 5 7 5 4 5 5 6 7 7 6 6 11 13 14 12 12 14 15
14 13 16 15 13 14 11 9 7 7 8 9 12 11 9 8 7 6 5 6 6 7 5 5 5 4 5 5 5 6 6 7 6 7 9 9 11 13 14 13 14 15 16
14 15 14 13 12 11 8 8 7 7 7 8 9 11 8 6 7 7 6 6 6 5 6 6 4 5 6 6 7 8 8 8 6 6 8 11 12 14 15 15 14 15 14
14 14 13 12 12 11 10 8 8 8 8 9 9 10 8 8 7 7 6 6 7 7 7 7 6 6 7 8 9 9 9 9 10 7 6 10 12 14 16 16 15 14 13
13 15 15 15 13 13 11 11 9 9 8 9 8 10 12 8 8 8 8 8 8 8 7 6 7 7 7 6 7 9 9 9 9 10 8 9 9 13 14 18 18 13 13
11 12 15 15 15 15 15 12 9 9 9 8 7 11 11 10 9 8 6 7 7 7 9 8 8 7 7 7 10 9 8 8 9 11 10 10 8 9 12 13 14 12 10
11 11 12 11 14 13 12 11 9 8 8 7 9 8 12 12 10 9 8 7 8 8 7 7 7 6 7 7 8 6 7 6 5 10 10 8 7 6 7 10 13 11 11
12 12 12 12 13 14 11 8 8 9 7 7 6 6 9 7 8 8 6 6 7 6 7 7 7 5 6 3 8 6 6 4 3 6 11 11 10 8 6 7 10 10 11
12 11 11 10 12 12 8 6 5 5 5 5 5 6 8 7 6 7 7 7 7 6 7 7 4 6 5 3 5 6 3 5 5 8 10 9 6 4 4 6 5 9 11
12 13 12 12 12 9 7 6 6 6 4 4 4 5 4 3 5 7 6 7 8 7 7 7 6 6 5 3 5 5 4 4 6 7 6 7 5 6 5 4 8 6 8
14 12 12 12 12 10 7 4 2 4 3 2 3 3 2 3 4 5 7 8 8 7 8 8 9 6 6 5 5 3 6 7 5 5 4 6 6 5 8 12 9 12 9
10 11 10 10 9 8 8 6 5 3 2 2 3 2 4 7 7 8 7 5 7 8 10 11 9 10 8 3 3 2 2 3 4 4 4 6 6 5 7 8 9 11 11
8 7 9 10 9 8 9 7 6 3 3 2 1 1 3 4 5 6 7 8 8 6 9 9 7 8 6 7 4 4 5 4 3 3 5 4 3 6 9 8 9 10 11
7 8 8 9 10 10 9 7 5 4 2 3 3 4 4 5 6 6 6 6 6 5 6 7 7 8 4 5 3 2 3 4 6 7 5 4 3 8 9 9 9 8 9
10 11 10 11 9 6 5 6 6 7 5 4 4 4 4 4 4 8 9 8 9 8 7 7 8 8 8 9 8 7 6 3 7 7 8 6 8 13 9 9 9 7 7
Wind_Direction
148 143 140 140 136 127 127 129 128 131 134 136 140 145 144 138 136 138 137 135 134 132 129 123 120 118 120 119 122 124 122 126 128 129 132 133 134 136 145 142 145 138 137
143 142 139 141 139 133 127 124 124 128 131 134 140 141 141 138 138 139 138 138 140 134 129 125 125 123 123 122 125 125 127 131 129 132 133 139 151 171 164 163 175 124 152
142 142 145 142 140 135 125 121 121 124 129 134 135 136 139 138 136 137 138 139 141 136 134 133 131 130 127 126 126 129 136 137 137 143 151 157 155 188 181 179 175 168 174
142 148 148 146 144 139 128 125 124 125 128 130 131 135 137 133 134 136 139 142 142 139 139 138 137 134 130 129 132 138 141 143 149 156 178 170 177 169 191 196 188 189 188
146 148 144 147 146 142 136 132 132 132 131 132 133 135 133 132 134 137 138 137 143 143 146 148 146 141 140 142 147 151 158 165 174 200 198 196 210 167 203 204 204 199 203
148 151 142 143 145 144 140 137 136 135 135 135 137 136 135 135 136 134 134 138 141 145 151 154 153 157 160 157 160 162 171 180 206 212 229 227 238 158 204 210 224 224 213
152 151 149 143 145 149 147 146 143 141 139 137 136 134 132 132 132 131 133 136 138 144 155 163 170 174 173 170 172 178 186 203 245 236 238 262 226 193 212 211 220 225 228
153 152 151 147 147 151 152 152 148 147 145 143 141 139 134 131 133 132 138 139 137 140 156 173 185 193 198 205 205 207 215 239 234 261 264 270 321 220 219 214 218 226 232
155 155 158 159 153 150 150 152 151 149 150 149 144 140 139 137 135 138 140 142 142 144 154 194 228 238 238 244 252 257 263 266 276 272 275 260 187 250 230 224 219 224 229
165 163 163 163 163 164 159 151 153 156 156 154 151 149 148 145 148 157 157 157 155 159 181 224 258 266 271 273 272 273 275 272 262 269 257 260 267 267 260 236 229 225 229
175 174 173 170 168 167 166 162 155 156 154 152 155 156 154 168 173 169 162 162 171 185 207 235 257 266 268 261 271 283 291 271 278 269 268 255 270 273 267 254 236 230 229
186 184 179 177 173 171 169 167 169 168 170 173 173 171 173 170 174 181 170 178 198 217 220 228 238 251 256 272 276 257 270 283 279 274 269 263 270 270 270 264 254 246 240
190 183 186 185 180 181 177 175 176 176 171 176 178 175 173 171 175 186 185 194 206 206 240 226 237 251 267 272 278 283 289 287 281 278 276 269 266 272 266 259 252 247 244
194 195 188 188 183 186 183 182 180 183 183 178 178 179 176 180 185 187 188 198 210 219 230 239 245 247 258 261 263 276 278 277 275 279 278 265 268 270 269 261 255 251 242
199 198 194 189 185 184 184 185 184 194 192 191 179 181 187 195 196 200 205 204 208 203 216 231 238 247 253 252 251 251 261 271 273 270 274 270 262 262 267 267 258 258 246
197 192 190 190 187 181 191 192 189 189 195 193 186 185 192 200 205 207 203 216 213 212 216 225 236 242 240 258 275 281 287 287 280 278 270 277 257 264 263 271 265 248 239
184 183 191 193 194 192 190 187 194 195 192 193 197 192 196 205 214 225 224 231 244 235 221 202 232 240 250 246 236 229 234 261 274 276 277 275 280 253 256 268 266 257 251
169 181 189 194 197 198 196 190 192 190 199 198 208 190 201 205 215 223 223 226 241 244 231 240 200 220 242 258 269 274 273 216 245 278 277 277 269 279 250 257 259 253 246
179 177 187 192 197 195 191 190 199 203 199 208 212 205 210 207 211 233 248 251 241 248 261 239 237 258 254 236 271 271 275 294 283 270 283 277 266 260 271 281 273 269 263
172 178 182 192 197 191 185 187 203 210 213 221 222 218 218 223 220 234 244 253 256 239 246 247 245 230 251 276 266 269 262 279 299 282 274 276 265 267 276 280 282 250 242
177 174 177 180 182 175 172 185 210 215 206 214 218 222 215 208 218 231 253 260 247 250 250 260 257 266 274 214 257 256 205 273 296 279 266 265 274 253 263 248 251 252 250
185 191 176 179 173 174 176 173 162 171 194 203 198 228 253 275 270 257 255 263 274 272 267 250 239 251 254 219 278 293 293 297 238 265 263 256 236 238 232 224 229 253 249
200 190 175 165 161 164 155 136 114 123 126 196 219 256 269 260 254 248 243 256 266 268 267 268 260 246 257 270 214 217 329 294 327 34 281 267 270 282 263 251 235 241 245
199 168 159 161 157 155 155 153 148 154 164 122 49 338 322 311 287 276 272 272 277 279 272 276 262 249 238 240 217 192 145 183 202 275 215 242 292 272 248 244 239 234 241
137 125 134 144 151 157 162 164 160 160 128 105 102 70 61 49 29 11 0 332 312 313 298 281 260 232 246 276 236 180 207 184 223 218 251 287 292 252 244 229 242 248 252
115 110 115 116 108 113 123 129 136 146 140 124 93 94 76 65 52 38 37 28 21 7 8 359 347 307 287 279 270 243 204 201 237 240 259 278 233 256 263 253 250 250 265